Ana Sayfa
METAR-TAF:

METAR-TAF

Havaalanları :

Garner Field

Uvalde, Teksas, Amerika Birleşik Devletleri

Enlem: 29-12-40N, Boylam: 099-44-36W, yükseklik: 287 m

Güncel hava durumu gözlemi

Rapor saat 07:15 UTC de 20 dakika önce yapıldı.
Rüzgar batı/kuzeybatıdan 3 kt
Sıcaklık 8°C
Nem 66%
Basınç 1013 hPa
Görüş mesafesi: 16.1 km
Açık gökyüzü

METAR: KUVA 140715Z AUTO 30003KT 10SM CLR 08/02 A2991 RMK AO2 T00750015

Saat: 01:35 (07:35 UTC)


TAF: eksik

4.000'den fazla havaalanı için hava durumu gözlemleri ve tahminleri (METAR ve TAF raporları).

Kullanılabilir istasyonlar harita üzerinde sarı ve kırmızı noktalarla gösterilir.

İstasyonun adını görmek için fareyi noktanın üzerinde gezdirin.

Sonrasında hava gözlem ve tahminlerini görmek için tıklayın.

Haritayı değiştirmek için: yaklaştırmak için siyah artı işaretli yeşil düğmeye ve uzaklaştırmak için de eksi işaretli düğmeye hızla tıklayın; bitişik haritalar için yeşil okları kullanın.


METAR-TAF: